LESTLECO

Guest
Details From LEST - Santiago
To LECO - A Coruna
Flight Number -
Tags Routegen Generated
Created
Modified
Stats Distance 24 nm / 44 km
Max Altitude 100 ft / 30 m
Waypoints 5
Social Downloads 3
Likes 0
Share VATSIM

Download

Looking for another format? Having issues loading an existing format? Contact us
Advertisement - Login to hide

Notes

Departing runway 34 LEST. Arriving runway 3 LECO.

Route

LEST +42.98_-008.44 +43.11_-008.44 +43.23_-008.43 LECO

ID Type Via Altitude Latitude Longitude Leg Dist Tot Dist Heading (true) Name
O LEST APT - 0 ft / 0 m 42.91177˚ -8.42043˚ - 0 nm - -
+42.98_-008.44 LATLON - 100 ft / 30 m 42.98200˚ -8.44428˚ 4 nm 4 nm 346° / 346° -
+43.11_-008.44 LATLON - 100 ft / 30 m 43.10733˚ -8.43923˚ 7 nm 11 nm 2° / 2° -
+43.23_-008.43 LATLON - 100 ft / 30 m 43.23265˚ -8.43417˚ 7 nm 19 nm 2° / 2° -
O LECO APT - 0 ft / 0 m 43.29478˚ -8.38323˚ 4 nm 23 nm 31° / 31° -

Altitude Profile

Advertisement - Login to hide

LEST

Details ICAO LEST (SCQ)
Name Santiago
Region Spain
Timezone Europe/Madrid (UTC+2.0)
Stats Elevation 1,169 ft / 356 m (AMSL)
Location 42.897797° -8.415691°
Runways 1
Magnetic Variation 2.311° W

METAR

LEST 262330Z VRB02KT 7000 SCT005 OVC008 13/12 Q1016 TEMPO 3000 -DZ BR BKN005

Decode

TAF

TAF LEST 261700Z 2618/2718 02006KT 9000 SCT012 BKN020 TX20/2713Z TN10/2705Z TEMPO 2618/2710 BKN012 PROB30 TEMPO 2619/2622 4000 BR BKN008 TEMPO 2622/2707 4000 BR BKN008 PROB40 TEMPO 2623/2707 1400 BCFG BKN005 PROB30 TEMPO 2623/2707 0800 BCFG BKN002 TEMPO 2713/2718 30010KT

Decode

Departure Runways

ID Width Length Bearing (true) Bearing (mag) Surface Threshold Offset Overrun Length
17 148 ft / 45 m 10,509 ft / 3,203 m 166.04° 168.35° Asphalt 394 ft / 120 m 0 ft / 0 m
35 148 ft / 45 m 10,509 ft / 3,203 m 346.05° 348.36° Asphalt 0 ft / 0 m 197 ft / 60 m

LECO

Details ICAO LECO (LCG)
Name A Coruna
Region Spain
Timezone Europe/Madrid (UTC+2.0)
Stats Elevation 323 ft / 98 m (AMSL)
Location 43.302264° -8.377086°
Runways 1
Magnetic Variation 2.331° W

METAR

LECO 262330Z AUTO VRB02KT 6000 FEW008/// SCT014/// OVC024/// 14/13 Q1016

Decode

TAF

TAF LECO 262000Z 2621/2721 36005KT 7000 SCT012 BKN020 TX17/2714Z TN12/2706Z TEMPO 2621/2712 3000 -DZ BR BKN010 BKN014 PROB40 TEMPO 2621/2709 1500 DZ BCFG BKN005 PROB30 TEMPO 2621/2706 0600 BCFG VV002

Decode

Destination Runways

ID Width Length Bearing (true) Bearing (mag) Surface Threshold Offset Overrun Length
04 148 ft / 45 m 6,371 ft / 1,942 m 30.94° 33.27° Asphalt 0 ft / 0 m 194 ft / 59 m
22 148 ft / 45 m 6,371 ft / 1,942 m 210.94° 213.27° Asphalt 0 ft / 0 m 203 ft / 62 m

Approach Navaids

Runway Type Ident Frequency Range Bearing (true) Bearing (mag) Slope Elevation
22 Localiser LCO 109.90 MHz 18 nm / 33 km 210.89° 213.22° - 329 ft / 100 m (AMSL)
22 Glidescope LCO 109.90 MHz 10 nm / 19 km 210.94° 213.27° 3.00° 323 ft / 98 m (AMSL)
22 DME LCO 109.90 MHz 18 nm / 33 km - - - 293 ft / 89 m (AMSL)

Popular Alternatives